Weather reports worldwide

Advertisment
Eugene OR/Mahlon Sweet, United States of America (72693): temperature & dewpoint: 09.08.2020 01:00:00 - 15.08.2020 01:00:00 (PDT)Eugene OR/Mahlon Sweet, United States of America (72693): wind speed & gusts: 09.08.2020 01:00:00 - 15.08.2020 01:00:00 (PDT)Eugene OR/Mahlon Sweet, United States of America (72693): wind direction: 09.08.2020 01:00:00 - 15.08.2020 01:00:00 (PDT)Eugene OR/Mahlon Sweet, United States of America (72693): reduced air pressure: 09.08.2020 01:00:00 - 15.08.2020 01:00:00 (PDT)Eugene OR/Mahlon Sweet, United States of America (72693): visibility: 09.08.2020 01:00:00 - 15.08.2020 01:00:00 (PDT)Eugene OR/Mahlon Sweet, United States of America (72693): precipitation: 09.08.2020 01:00:00 - 15.08.2020 01:00:00 (PDT)
Date & Time tt [°C] td [°C] ff [km/h] ff [kn] fx [km/h] fx [kn] dd ppp [hPa] vv [km] rr [mm]
15.08.2020 01:00:00 - - - - - - - - - -
15.08.2020 00:00:00 17,8 8,9 15 8 - - N 1015,1 16 -
14.08.2020 23:00:00 19,4 8,9 9 5 - - N 1015,4 16 0,0
14.08.2020 22:00:00 20,6 8,3 9 5 - - N 1015,5 16 -
14.08.2020 21:00:00 23,9 8,9 8 4 - - N 1015,3 16 -
14.08.2020 20:00:00 26,7 10,0 15 8 - - NNE 1015,0 16 -
14.08.2020 19:00:00 30,0 10,0 21 11 - - N 1015,2 16 -
14.08.2020 18:00:00 31,1 9,4 22 12 - - N 1015,9 16 -
14.08.2020 17:00:00 31,1 8,3 29 16 - - N 1016,3 16 0,0
14.08.2020 16:00:00 30,6 8,9 26 14 - - NNE 1016,9 16 -
14.08.2020 15:00:00 30,0 8,9 28 15 - - N 1017,7 16 -
14.08.2020 14:00:00 28,3 8,9 28 15 - - N 1018,4 16 -
14.08.2020 13:00:00 26,1 8,9 21 11 - - N 1019,3 16 -
14.08.2020 12:00:00 23,9 8,9 22 12 - - N 1020,0 16 -
14.08.2020 11:00:00 21,7 8,3 21 11 - - N 1020,5 16 0,0
14.08.2020 10:00:00 20,0 8,9 16 9 - - N 1020,9 16 -
14.08.2020 09:00:00 17,2 8,3 21 11 - - NNE 1021,0 16 -
14.08.2020 08:00:00 15,6 8,9 16 9 - - N 1021,0 16 -
14.08.2020 07:00:00 11,1 6,7 0 0 - - N 1021,1 16 -
14.08.2020 06:00:00 10,0 6,1 8 4 - - SE 1020,8 16 -
14.08.2020 05:00:00 11,1 6,7 0 0 - - N 1020,5 16 0,0
14.08.2020 04:00:00 13,3 7,8 18 10 - - N 1020,5 16 -
14.08.2020 03:00:00 13,3 7,2 21 11 - - N 1020,4 16 -
14.08.2020 02:00:00 13,9 7,8 18 10 - - N 1020,2 16 -
14.08.2020 01:00:00 15,0 7,2 0 0 - - N 1020,2 16 -
14.08.2020 00:00:00 14,4 7,2 13 7 - - N 1020,1 16 -
13.08.2020 23:00:00 16,7 5,0 13 7 - - N 1020,0 16 0,0
13.08.2020 22:00:00 17,2 2,8 0 0 - - N 1019,7 16 -
13.08.2020 21:00:00 19,4 1,7 9 5 - - NNW 1019,2 16 -
13.08.2020 20:00:00 22,2 1,1 15 8 - - N 1018,8 16 -
13.08.2020 19:00:00 25,6 -1,1 22 12 - - N 1018,7 16 -
13.08.2020 18:00:00 26,7 -2,2 22 12 - - N 1018,9 16 -
13.08.2020 17:00:00 27,2 -1,1 22 12 - - N 1019,1 16 0,0
13.08.2020 16:00:00 27,8 2,2 26 14 - - N 1019,2 16 -
13.08.2020 15:00:00 26,7 6,7 21 11 - - NNW 1019,5 16 -
13.08.2020 14:00:00 25,0 7,8 15 8 - - NNE 1019,8 16 -
13.08.2020 13:00:00 23,9 8,3 15 8 - - NNW 1020,0 16 -
13.08.2020 12:00:00 22,2 7,8 18 10 - - NNE 1020,6 16 -
13.08.2020 11:00:00 20,0 8,3 18 10 - - N 1020,7 16 0,0
13.08.2020 10:00:00 17,8 8,3 21 11 - - N 1020,7 16 -
13.08.2020 09:00:00 15,6 8,3 16 9 - - N 1020,7 16 -
13.08.2020 08:00:00 13,9 8,9 11 6 - - NE 1020,6 16 -
13.08.2020 07:00:00 10,6 7,8 0 0 - - N 1020,0 16 -
13.08.2020 06:00:00 10,0 6,7 0 0 - - N 1019,4 16 -
13.08.2020 05:00:00 11,1 7,2 5 3 - - N 1019,2 16 0,0
13.08.2020 04:00:00 11,7 7,2 13 7 - - N 1019,0 16 -
13.08.2020 03:00:00 11,7 7,8 8 4 - - NNW 1018,8 16 -
13.08.2020 02:00:00 11,7 7,2 9 5 - - N 1018,3 16 -
13.08.2020 01:00:00 12,2 8,3 11 6 - - ENE 1018,5 16 -
13.08.2020 00:00:00 15,0 8,9 8 4 - - NNE 1018,2 16 -
12.08.2020 23:00:00 15,6 8,9 9 5 - - NNW 1018,0 16 0,0
12.08.2020 22:00:00 17,2 8,9 13 7 - - NNW 1017,9 16 -
12.08.2020 21:00:00 18,9 7,2 15 8 - - N 1017,2 16 -
12.08.2020 20:00:00 21,1 7,8 16 9 - - NNE 1016,7 16 -
12.08.2020 19:00:00 24,4 7,2 18 10 - - N 1016,4 16 -
12.08.2020 18:00:00 25,0 6,7 24 13 - - NNE 1016,4 16 -
12.08.2020 17:00:00 25,6 6,1 18 10 - - NNE 1016,5 16 0,0
12.08.2020 16:00:00 25,6 5,6 16 9 - - N 1016,7 16 -
12.08.2020 15:00:00 25,0 4,4 21 11 - - N 1017,2 16 -
12.08.2020 14:00:00 23,9 6,1 21 11 - - NNE 1017,5 16 -
12.08.2020 13:00:00 22,8 7,2 18 10 - - NNE 1017,8 16 -
12.08.2020 12:00:00 21,1 7,2 13 7 - - N 1018,2 16 -
12.08.2020 11:00:00 20,0 7,8 13 7 - - NNE 1018,1 16 0,0
12.08.2020 10:00:00 17,8 7,8 9 5 - - NNE 1018,0 16 -
12.08.2020 09:00:00 15,6 8,3 13 7 - - N 1018,1 16 -
12.08.2020 08:00:00 12,8 7,8 0 0 - - N 1017,9 16 -
12.08.2020 07:00:00 11,1 6,7 5 3 - - NNW 1017,6 16 -
12.08.2020 06:00:00 10,6 6,1 0 0 - - N 1016,9 16 -
12.08.2020 05:00:00 9,4 5,6 5 3 - - W 1016,6 16 0,0
12.08.2020 04:00:00 9,4 5,6 0 0 - - N 1016,4 16 -
12.08.2020 03:00:00 11,1 6,1 0 0 - - N 1015,8 16 -
12.08.2020 02:00:00 11,7 6,1 0 0 - - N 1015,6 16 -
12.08.2020 01:00:00 12,8 6,7 0 0 - - N 1015,6 16 -
12.08.2020 00:00:00 12,8 5,6 0 0 - - N 1015,4 16 -
11.08.2020 23:00:00 16,1 5,0 0 0 - - N 1014,9 16 0,0
11.08.2020 22:00:00 17,8 5,6 8 4 - - W 1014,6 16 -
11.08.2020 21:00:00 19,4 5,6 8 4 - - N 1013,8 16 -
11.08.2020 20:00:00 23,3 3,9 15 8 - - WNW 1012,7 16 -
11.08.2020 19:00:00 27,2 1,7 22 12 - - WNW 1012,2 16 -
11.08.2020 18:00:00 30,0 6,7 16 9 - - NNW 1012,1 16 -
11.08.2020 17:00:00 30,0 6,1 9 5 - - - 1012,2 16 0,0
11.08.2020 16:00:00 30,6 5,0 8 4 - - NNE 1012,7 16 -
11.08.2020 15:00:00 28,9 2,2 5 3 - - - 1013,4 16 -
11.08.2020 14:00:00 27,8 0,6 11 6 - - - 1014,1 16 -
11.08.2020 13:00:00 26,7 1,1 11 6 - - - 1014,7 16 -
11.08.2020 12:00:00 24,4 3,9 8 4 - - NW 1015,0 16 -
11.08.2020 11:00:00 22,8 5,6 9 5 - - NE 1015,6 16 0,0
11.08.2020 10:00:00 20,6 6,7 9 5 - - - 1015,6 16 -
11.08.2020 09:00:00 17,8 7,2 5 3 - - N 1015,8 16 -
11.08.2020 08:00:00 15,6 7,8 0 0 - - N 1015,8 16 -
11.08.2020 07:00:00 10,0 6,1 0 0 - - N 1015,3 16 -
11.08.2020 06:00:00 10,6 6,7 5 3 - - NNW 1014,7 16 -
11.08.2020 05:00:00 10,6 6,7 13 7 - - WNW 1014,6 16 0,0
11.08.2020 04:00:00 12,8 7,8 8 4 - - NW 1014,5 16 -
11.08.2020 03:00:00 13,9 8,3 8 4 - - NW 1014,3 16 -
11.08.2020 02:00:00 15,6 8,3 13 7 - - NNW 1014,2 16 -
11.08.2020 01:00:00 16,7 8,9 5 3 - - NNW 1014,2 16 -
11.08.2020 00:00:00 17,2 9,4 8 4 - - N 1014,2 16 -
10.08.2020 23:00:00 19,4 10,6 13 7 - - N 1013,9 16 0,0
10.08.2020 22:00:00 21,7 12,8 8 4 - - NE 1013,7 16 -
10.08.2020 21:00:00 24,4 12,2 8 4 - - - 1012,8 16 -
10.08.2020 20:00:00 30,0 11,7 21 11 - - NNW 1012,0 16 -
10.08.2020 19:00:00 33,9 12,8 28 15 - - N 1012,0 16 -
10.08.2020 18:00:00 34,4 11,1 16 9 - - NNE 1012,4 16 -
10.08.2020 17:00:00 35,0 11,1 21 11 - - NNE 1013,1 16 0,0
10.08.2020 16:00:00 35,0 11,7 18 10 - - N 1014,2 16 -
10.08.2020 15:00:00 33,9 11,7 24 13 - - N 1015,2 16 -
10.08.2020 14:00:00 31,7 11,7 24 13 - - NNE 1015,9 16 -
10.08.2020 13:00:00 30,0 10,6 21 11 - - N 1016,8 16 -
10.08.2020 12:00:00 28,3 10,0 16 9 - - N 1017,7 16 -
10.08.2020 11:00:00 25,6 9,4 22 12 - - NNE 1018,3 16 0,0
10.08.2020 10:00:00 23,3 8,9 24 13 - - NNE 1018,6 16 -
10.08.2020 09:00:00 21,7 8,3 22 12 - - N 1018,8 16 -
10.08.2020 08:00:00 18,9 8,9 18 10 - - N 1018,7 16 -
10.08.2020 07:00:00 15,0 8,9 13 7 - - N 1018,4 16 -
10.08.2020 06:00:00 13,9 8,3 11 6 - - N 1018,2 16 -
10.08.2020 05:00:00 14,4 9,4 5 3 - - N 1018,2 16 0,0
10.08.2020 04:00:00 15,6 10,0 11 6 - - N 1018,3 16 -
10.08.2020 03:00:00 16,7 10,6 18 10 - - N 1018,4 16 -
10.08.2020 02:00:00 15,0 9,4 15 8 - - NNE 1018,5 16 -
10.08.2020 01:00:00 17,2 8,9 5 3 - - N 1019,0 16 -
10.08.2020 00:00:00 17,8 7,2 15 8 - - N 1019,0 16 -
09.08.2020 23:00:00 20,6 7,2 13 7 - - N 1019,2 16 0,0
09.08.2020 22:00:00 22,2 7,2 18 10 - - N 1019,3 16 -
09.08.2020 21:00:00 23,9 7,2 22 12 - - N 1019,0 16 -
09.08.2020 20:00:00 25,6 7,8 21 11 - - NNE 1018,6 16 -
09.08.2020 19:00:00 28,3 8,3 31 17 - - N 1018,5 16 -
09.08.2020 18:00:00 29,4 7,8 34 18 - - N 1018,9 16 -
09.08.2020 17:00:00 28,9 8,3 34 18 - - N 1019,5 16 0,0
09.08.2020 16:00:00 28,3 9,4 29 16 48 26 N 1020,4 16 -
09.08.2020 15:00:00 27,2 9,4 31 17 - - N 1021,1 16 -
09.08.2020 14:00:00 26,7 9,4 31 17 - - N 1021,6 16 -
09.08.2020 13:00:00 25,0 9,4 24 13 - - N 1022,3 16 -
09.08.2020 12:00:00 23,3 9,4 31 17 - - N 1022,9 16 -
09.08.2020 11:00:00 21,7 10,0 28 15 - - N 1023,4 16 0,0
09.08.2020 10:00:00 19,4 9,4 21 11 - - N 1023,7 16 -
09.08.2020 09:00:00 16,7 8,9 18 10 - - N 1024,0 16 -
09.08.2020 08:00:00 15,0 8,9 18 10 - - NNE 1023,9 16 -
09.08.2020 07:00:00 12,2 8,3 13 7 - - N 1023,7 16 -
09.08.2020 06:00:00 10,0 7,8 11 6 - - NNE 1023,3 16 -
09.08.2020 05:00:00 12,2 8,9 13 7 - - N 1023,0 16 0,0
09.08.2020 04:00:00 12,2 8,9 0 0 - - N 1022,9 16 -
09.08.2020 03:00:00 12,2 8,3 8 4 - - NNW 1022,4 16 -
09.08.2020 02:00:00 13,9 9,4 13 7 - - N 1022,2 16 -
09.08.2020 01:00:00 14,4 9,4 13 7 - - NNE 1022,1 16 -

tt = temperature
td = dewpoint
ff = wind speed
fx = gusts
dd = wind direction
ppp = reduced air pressure
vv = visibility
rr = precipitation

Next stations